Location: Benque
(43.2594°N, 0.9178°E)
Time: 18:02:33
(UTC+00:00)

H-2A ROCKET BODY - Pass Details

Date: 24 January 2020
Orbit: 242 x 15394 km, 28.6° (Epoch: 23 February)

Event Time Altitude Azimuth Distance (km) Brightness Sun altitude
Rises 17:09:35 0° 259° (W) 10,890 9.9 -2.9°
Reaches altitude 10° 17:22:03 10° 253° (WSW) 6,904 8.8 -5.0°
Maximum altitude 17:34:56 27° 204° (SSW) 2,350 5.1 -7.2°
Drops below altitude 10° 17:39:19 10° 145° (SE) 2,220 4.2 -8.0°
Enters shadow 17:41:35 -3° 126° (SE) 2,888 4.7 -8.4°
